timestamp,surface_pressure_avg,surface_temp_avg,battery_voltage,lat,long
2019-01-05 00:00:00+00:00,319.7147,0.68,12.97,47.84626,-54.09684
2019-01-05 00:10:00+00:00,320.478,0.6,12.89,47.84626,-54.09684
2019-01-05 00:20:00+00:00,315.193,0.4,12.97,47.84626,-54.09684
2019-01-05 00:30:00+00:00,309.6846,0.3,12.97,47.84626,-54.09684
2019-01-05 00:40:00+00:00,310.8813,0.3,12.97,47.84626,-54.09684
2019-01-05 00:50:00+00:00,304.3981,0.3,12.97,47.84626,-54.09684
2019-01-05 01:00:00+00:00,295.0431,0.1,12.89,47.84626,-54.09684
2019-01-05 01:10:00+00:00,294.7679,0.12,12.81,47.84626,-54.09684
2019-01-05 01:20:00+00:00,293.063,0.25,12.97,47.84626,-54.09684
2019-01-05 01:30:00+00:00,284.5464,0.72,12.97,47.84626,-54.09684
2019-01-05 01:40:00+00:00,270.0081,0.8,12.97,47.84626,-54.09684
2019-01-05 01:50:00+00:00,262.838,0.7,12.97,47.84626,-54.09684
2019-01-05 02:00:00+00:00,258.4014,0.78,12.89,47.84626,-54.09684
2019-01-05 02:10:00+00:00,249.5314,0.86,12.81,47.84626,-54.09684
2019-01-05 02:20:00+00:00,238.1697,0.9,12.89,47.84626,-54.09684
2019-01-05 02:30:00+00:00,237.1914,0.94,12.89,47.84626,-54.09684
2019-01-05 02:40:00+00:00,230.4364,0.9,12.97,47.84626,-54.09684
2019-01-05 02:50:00+00:00,217.3214,0.58,12.97,47.84626,-54.09684
2019-01-05 03:00:00+00:00,210.7348,0.4,12.89,47.84626,-54.09684
2019-01-05 03:10:00+00:00,208.8381,0.4,12.81,47.84626,-54.09684
2019-01-05 03:20:00+00:00,203.8565,0.39,12.89,47.84626,-54.09684
2019-01-05 03:30:00+00:00,201.1565,0.2,12.89,47.84626,-54.09684
2019-01-05 03:40:00+00:00,197.9048,0.2,12.89,47.84626,-54.09684
2019-01-05 03:50:00+00:00,191.2598,0.1,12.97,47.84626,-54.09684
2019-01-05 04:00:00+00:00,190.6314,0.0,12.81,47.84626,-54.09684
2019-01-05 04:10:00+00:00,195.1465,-0.1,12.81,47.84626,-54.09684
2019-01-05 04:20:00+00:00,199.4481,-0.3,12.89,47.84626,-54.09684
2019-01-05 04:30:00+00:00,198.9481,-0.4,12.89,47.84626,-54.09684
2019-01-05 04:40:00+00:00,196.3848,-0.4,12.89,47.84626,-54.09684
2019-01-05 04:50:00+00:00,197.9915,-0.4,12.89,47.84626,-54.09684
2019-01-05 05:00:00+00:00,200.4514,-0.32,12.81,47.84626,-54.09684
2019-01-05 05:10:00+00:00,197.7864,-0.21,12.73,47.84626,-54.09684
2019-01-05 05:20:00+00:00,196.6331,-0.3,12.89,47.84626,-54.09684
2019-01-05 05:30:00+00:00,210.6447,-0.2,12.89,47.84626,-54.09684
2019-01-05 05:40:00+00:00,219.2448,-0.2,12.89,47.84626,-54.09684
2019-01-05 05:50:00+00:00,211.9414,-0.2,12.89,47.84626,-54.09684
2019-01-05 06:00:00+00:00,215.7631,-0.2,12.81,47.84626,-54.09684
2019-01-05 06:10:00+00:00,229.1247,-0.16,12.73,47.84626,-54.09684
2019-01-05 06:20:00+00:00,234.9781,0.1,12.89,47.84626,-54.09684
2019-01-05 06:30:00+00:00,231.5831,0.05,12.89,47.84626,-54.09684
2019-01-05 06:40:00+00:00,233.0031,0.27,12.89,47.84626,-54.09684
2019-01-05 06:50:00+00:00,241.3614,0.5,12.89,47.84626,-54.09684
2019-01-05 07:00:00+00:00,237.9431,0.67,12.81,47.84626,-54.09684
2019-01-05 07:10:00+00:00,238.5798,0.7,12.73,47.84626,-54.09684
2019-01-05 07:20:00+00:00,253.8481,0.75,12.81,47.84626,-54.09684
2019-01-05 07:30:00+00:00,260.3714,0.9,12.89,47.84626,-54.09684
2019-01-05 07:40:00+00:00,260.6331,0.88,12.89,47.84626,-54.09684
2019-01-05 07:50:00+00:00,268.8314,0.89,12.89,47.84626,-54.09684
2019-01-05 08:00:00+00:00,279.6831,0.86,12.81,47.84626,-54.09684
2019-01-05 08:10:00+00:00,275.3931,0.9,12.73,47.84626,-54.09684
2019-01-05 08:20:00+00:00,277.2714,0.96,12.81,47.84626,-54.09684
2019-01-05 08:30:00+00:00,287.7231,1.0,12.89,47.84626,-54.09684
2019-01-05 08:40:00+00:00,292.0814,1.06,12.89,47.84626,-54.09684
2019-01-05 08:50:00+00:00,293.8413,1.17,12.89,47.84626,-54.09684
2019-01-05 09:00:00+00:00,310.888,1.3,12.81,47.84626,-54.09684
2019-01-05 09:10:00+00:00,323.1196,1.23,12.73,47.84626,-54.09684
2019-01-05 09:20:00+00:00,324.3763,1.25,12.81,47.84626,-54.09684
2019-01-05 09:30:00+00:00,333.1296,1.21,12.81,47.84626,-54.09684
2019-01-05 09:40:00+00:00,347.5546,1.2,12.89,47.84626,-54.09684
2019-01-05 09:50:00+00:00,354.7614,1.2,12.89,47.84626,-54.09684
2019-01-05 10:00:00+00:00,351.8463,1.2,12.81,47.84626,-54.09684
2019-01-05 10:10:00+00:00,354.663,1.16,12.73,47.84626,-54.09684
2019-01-05 10:20:00+00:00,367.6179,1.17,12.81,47.84626,-54.09684
2019-01-05 10:30:00+00:00,369.6512,1.2,12.81,47.84626,-54.09684
2019-01-05 10:40:00+00:00,369.9329,1.2,12.89,47.84626,-54.09684
2019-01-05 10:50:00+00:00,369.8896,1.16,12.89,47.84626,-54.09684
2019-01-05 11:00:00+00:00,368.7563,1.1,12.81,47.84626,-54.09684
2019-01-05 11:10:00+00:00,368.3846,1.1,12.73,47.84626,-54.09684
2019-01-05 11:20:00+00:00,368.1396,1.1,12.81,47.84626,-54.09684
2019-01-05 11:30:00+00:00,368.7613,1.1,12.81,47.84626,-54.09684
2019-01-05 11:40:00+00:00,370.3362,1.1,12.89,47.84626,-54.09684
2019-01-05 11:50:00+00:00,374.1246,1.1,12.89,47.84626,-54.09684
2019-01-05 12:00:00+00:00,368.0746,1.1,12.81,47.84626,-54.09684
2019-01-05 12:10:00+00:00,361.6079,1.09,12.73,47.84626,-54.09684
2019-01-05 12:20:00+00:00,365.2863,1.05,12.81,47.84626,-54.09684
2019-01-05 12:30:00+00:00,367.0179,1.02,12.81,47.84626,-54.09684
2019-01-05 12:40:00+00:00,362.2046,1.02,12.89,47.84626,-54.09684
2019-01-05 12:50:00+00:00,357.9496,1.0,12.89,47.84626,-54.09684
2019-01-05 13:00:00+00:00,358.3896,1.0,12.81,47.84626,-54.09684
2019-01-05 13:10:00+00:00,352.7213,1.0,12.73,47.84626,-54.09684
2019-01-05 13:20:00+00:00,344.6663,1.0,12.81,47.84626,-54.09684
2019-01-05 13:30:00+00:00,337.0113,1.0,12.81,47.84626,-54.09684
2019-01-05 13:40:00+00:00,329.838,1.0,12.89,47.84626,-54.09684
2019-01-05 13:50:00+00:00,318.5314,1.0,12.89,47.84626,-54.09684
2019-01-05 14:00:00+00:00,315.7697,1.0,12.81,47.84626,-54.09684
2019-01-05 14:10:00+00:00,307.308,1.0,12.73,47.84626,-54.09684
2019-01-05 14:20:00+00:00,293.848,0.97,12.89,47.84626,-54.09684
2019-01-05 14:30:00+00:00,283.4014,0.9,12.89,47.84626,-54.09684
2019-01-05 14:40:00+00:00,280.0014,0.9,12.89,47.84626,-54.09684
2019-01-05 14:50:00+00:00,270.9581,0.9,12.97,47.84626,-54.09684
2019-01-05 15:00:00+00:00,258.1331,0.9,12.89,47.84626,-54.09684
2019-01-05 15:10:00+00:00,254.2064,0.9,12.81,47.84626,-54.09684
2019-01-05 15:20:00+00:00,249.6565,0.9,12.89,47.84626,-54.09684
2019-01-05 15:30:00+00:00,240.3231,0.9,12.89,47.84626,-54.09684
2019-01-05 15:40:00+00:00,230.4581,0.96,12.97,47.84626,-54.09684
2019-01-05 15:50:00+00:00,224.5598,1.0,12.97,47.84626,-54.09684
2019-01-05 16:00:00+00:00,216.1598,1.0,12.97,47.84626,-54.09684
2019-01-05 16:10:00+00:00,211.3814,1.03,12.89,47.84626,-54.09684
2019-01-05 16:20:00+00:00,209.3031,1.07,12.97,47.84626,-54.09684
2019-01-05 16:30:00+00:00,206.7731,1.09,12.97,47.84626,-54.09684
2019-01-05 16:40:00+00:00,200.3714,1.1,13.05,47.84626,-54.09684
2019-01-05 16:50:00+00:00,196.9131,1.1,13.05,47.84626,-54.09684
2019-01-05 17:00:00+00:00,196.1148,1.1,12.97,47.84626,-54.09684
2019-01-05 17:10:00+00:00,191.7898,1.1,12.89,47.84626,-54.09684
2019-01-05 17:20:00+00:00,190.2398,1.1,12.97,47.84626,-54.09684
2019-01-05 17:30:00+00:00,192.8414,1.1,13.05,47.84626,-54.09684
2019-01-05 17:40:00+00:00,192.8814,1.1,13.05,47.84626,-54.09684
2019-01-05 17:50:00+00:00,191.3348,1.1,13.05,47.84626,-54.09684
2019-01-05 18:00:00+00:00,194.6214,1.1,12.97,47.84626,-54.09684
2019-01-05 18:10:00+00:00,198.8415,1.1,12.81,47.84626,-54.09684
2019-01-05 18:20:00+00:00,200.6215,1.09,12.89,47.84626,-54.09684
2019-01-05 18:30:00+00:00,200.7781,1.09,12.89,47.84626,-54.09684
2019-01-05 18:40:00+00:00,201.9848,1.09,12.89,47.84626,-54.09684
2019-01-05 18:50:00+00:00,205.2548,1.08,12.97,47.84626,-54.09684
2019-01-05 19:00:00+00:00,211.5215,1.08,12.81,47.84626,-54.09684
2019-01-05 19:10:00+00:00,217.1765,1.1,12.73,47.84626,-54.09684
2019-01-05 19:20:00+00:00,218.9514,1.09,12.81,47.84626,-54.09684
2019-01-05 19:30:00+00:00,221.5181,1.08,12.81,47.84626,-54.09684
2019-01-05 19:40:00+00:00,231.1397,1.08,12.89,47.84626,-54.09684
2019-01-05 19:50:00+00:00,237.1998,1.06,12.89,47.84626,-54.09684
2019-01-05 20:00:00+00:00,233.9081,1.03,12.81,47.84626,-54.09684
2019-01-05 20:10:00+00:00,237.6464,1.0,12.73,47.84626,-54.09684
2019-01-05 20:20:00+00:00,247.9898,1.0,12.81,47.84626,-54.09684
2019-01-05 20:30:00+00:00,249.6548,1.0,12.81,47.84626,-54.09684
2019-01-05 20:40:00+00:00,247.9897,1.0,12.89,47.84626,-54.09684
2019-01-05 20:50:00+00:00,253.4731,1.0,12.89,47.84626,-54.09684
2019-01-05 21:00:00+00:00,264.2264,1.0,12.81,47.84626,-54.09684
2019-01-05 21:10:00+00:00,271.8398,1.0,12.73,47.84626,-54.09684
2019-01-05 21:20:00+00:00,280.4847,1.0,12.81,47.84626,-54.09684
2019-01-05 21:30:00+00:00,286.8647,1.0,12.81,47.84626,-54.09684
2019-01-05 21:40:00+00:00,293.543,1.0,12.81,47.84626,-54.09684
2019-01-05 21:50:00+00:00,304.0347,1.0,12.89,47.84626,-54.09684
2019-01-05 22:00:00+00:00,313.0563,1.0,12.81,47.84626,-54.09684
2019-01-05 22:10:00+00:00,316.8698,1.0,12.73,47.84626,-54.09684
2019-01-05 22:20:00+00:00,320.8347,1.0,12.81,47.84626,-54.09684
2019-01-05 22:30:00+00:00,328.7797,1.0,12.81,47.84626,-54.09684
2019-01-05 22:40:00+00:00,329.2164,1.0,12.81,47.84626,-54.09684
2019-01-05 22:50:00+00:00,331.163,1.0,12.81,47.84626,-54.09684
2019-01-05 23:00:00+00:00,339.4513,1.0,12.81,47.84626,-54.09684
2019-01-05 23:10:00+00:00,341.0596,1.0,12.73,47.84626,-54.09684
2019-01-05 23:20:00+00:00,335.813,1.0,12.81,47.84626,-54.09684
2019-01-05 23:30:00+00:00,333.6296,1.0,12.81,47.84626,-54.09684
2019-01-05 23:40:00+00:00,339.0079,1.0,12.81,47.84626,-54.09684
2019-01-05 23:50:00+00:00,330.848,1.07,12.81,47.84626,-54.09684
